Regional Weather Roundup
Issued by NWS

Home | Current Version | Previous Version | Text Only | Print | Product List | Glossary Off
Versions: 1 2 3 4 5 6 7 8 9 10 11 12 13 14 15 16 17 18 19 20 21 22 23 24 25 26 27 28 29 30 31 32 33 34 35 36 37 38 39 40 41 42 43 44 45 46 47 48 49 50

000
ASUS43 KFSD 160810
RWRSD

WEATHER ROUNDUP FOR SOUTH DAKOTA
NATIONAL WEATHER SERVICE SIOUX FALLS SD
200 AM CST MON JAN 16 2017

NOTE: "FAIR" INDICATES FEW OR NO CLOUDS BELOW 12,000 FEET WITH NO
SIGNIFICANT WEATHER AND/OR OBSTRUCTIONS TO VISIBILITY.


SDZ001>005-009-010-012>017-160900-
NORTHWEST AND NORTH CENTRAL SOUTH DAKOTA

CITY           SKY/WX    TMP DP  RH WIND       PRES   REMARKS
BUFFALO          N/A     17   5  59 W7        29.96F WCI   8
FAITH            N/A     10   6  84 W8        30.04S WCI  -2
MOBRIDGE       CLOUDY     0  -6  76 N5        30.05S WCI -10
$$

SDZ012>016-024>037-041>051-057-063-072>074-160900-
SOUTHWEST AND SOUTH CENTRAL SOUTH DAKOTA

CITY           SKY/WX    TMP DP  RH WIND       PRES   REMARKS
RAPID CTY ARPT CLOUDY    23  11  60 N13       30.03S WCI  11
PIERRE         CLOUDY    10   5  80 CALM      30.08S
CUSTER         CLOUDY    24  14  65 NW6       29.99F WCI  17
ELLSWORTH AFB  CLOUDY    21   9  59 N7        30.02S WCI  12
PHILIP         CLOUDY     9   6  88 W6        30.06S WCI  -1
PINE RIDGE     CLOUDY    22  20  92 CALM      30.03S
SPEARFISH      FAIR      23  12  63 W7        30.04S WCI  15
WINNER         FAIR      20  16  84 W3        30.06S
$$

SDZ004>011-016>023-039-040-160900-
NORTHEAST SOUTH DAKOTA

CITY           SKY/WX    TMP DP  RH WIND       PRES   REMARKS
ABERDEEN       CLOUDY    -1  -6  79 S6        30.11S WCI -13
WATERTOWN      CLOUDY    11   8  88 S3        30.08F FOG
BROOKINGS      CLOUDY    15  12  88 CALM      30.10S
SISSETON         N/A     13  11  92 CALM      30.08R
$$

SDZ017-020-022-023-036>040-048>070-160900-
SOUTHEAST SOUTH DAKOTA

CITY           SKY/WX    TMP DP  RH WIND       PRES   REMARKS
SIOUX FALLS    CLOUDY    21  17  84 NE5       30.12S WCI  15
HURON          CLOUDY     8   6  92 NW3       30.11F
CHAMBERLAIN    CLOUDY    19  15  82 N7        30.07F WCI  10
MITCHELL       CLOUDY    20  17  88 E3        30.12S
YANKTON        CLOUDY    28  21  74 E3        30.11S
$$

ABBREVIATIONS USED IN REMARKS
   TC - TEMPERATURE IN CELSIUS
  WCI - WIND CHILL INDEX
   HX - HEAT INDEX
  VSB - VISIBILITY




USA.gov is the U.S. government's official web portal to all federal, state and local government web resources and services.